Temp_Advection
nan nan nan nan nan nan nan nan nan nan nan nan nan nan nan nan nan nan nan nan nan nan nan nan nan nan nan nan nan nan nan nan nan nan nan nan nan nan nan nan nan nan nan nan
nan -0 -1 -1 0 0 -0 -0 -0 -0 -1 -0 0 0 0 -1 -1 -0 0 -1 -0 0 1 0 0 0 0 0 -0 -0 -0 -0 -0 -0 -0 -0 -0 0 -0 -0 -0 -1 -1 nan
nan -1 -1 0 0 0 -0 0 0 -0 -1 -1 -0 -0 -0 -0 -0 0 -0 -0 0 -0 -1 -0 0 0 0 0 -0 -0 -0 -0 -0 -0 -0 0 0 0 -0 -0 -0 -0 -1 nan
nan -1 0 -0 -0 -0 -0 -0 -0 -0 -0 -0 -0 -0 -1 -0 0 0 1 1 0 -0 -1 -0 -0 0 0 0 0 0 -0 -0 -0 -0 -0 -0 -0 -0 -0 -0 -0 -0 -0 nan
nan -0 -0 -0 -0 0 0 -0 -0 -0 0 -0 0 -0 -0 -1 0 0 0 1 1 -0 -0 -0 -0 -0 0 0 0 0 -0 -0 -0 -0 -0 -0 -0 -0 -0 -0 -0 0 0 nan
nan -1 0 -0 -0 0 0 -0 -1 -0 0 -0 -0 0 -0 -0 -0 -0 0 1 1 0 0 -0 -0 0 0 0 0 0 -0 -0 -0 -0 -1 -0 -0 -0 -0 -0 -0 -0 0 nan
nan 0 -1 0 0 0 -0 -0 -0 -0 0 -1 -0 0 0 -0 -1 -0 0 -0 1 0 -0 -0 -0 0 0 0 -0 -0 0 -0 -0 -0 -0 -0 -0 -0 -0 -0 -0 -0 -0 nan
nan -0 -1 0 -0 0 0 0 -0 -0 -0 -1 -0 0 0 -1 -1 -2 -2 -1 0 0 -0 -0 -0 0 0 0 0 0 0 -0 0 -0 -0 -0 -0 -0 -0 -0 -0 -0 -0 nan
nan -0 0 0 -0 -0 0 0 -0 0 0 -0 -0 -0 -0 -1 -1 -1 -0 -1 -1 -0 -0 0 0 0 0 0 0 0 -0 -0 0 0 -0 -0 -0 -0 -0 -0 -0 -0 0 nan
nan -0 -0 -0 0 0 0 0 0 0 -0 -0 -0 -0 0 -0 -0 -0 -0 0 0 0 0 0 0 0 1 0 0 -0 -0 0 0 0 0 0 0 -0 -0 -0 -0 -0 -0 nan
nan -0 -0 -0 0 0 0 0 -0 0 -0 0 0 0 -0 -0 -0 -0 -0 -0 -0 0 1 0 1 1 0 0 0 -0 -0 -0 -0 0 0 0 -0 0 -0 -0 -0 -0 -1 nan
nan 0 0 -0 -1 -0 0 0 0 -0 0 0 0 -1 -0 -0 -0 -1 -0 1 1 1 1 1 1 0 0 0 0 0 0 0 0 0 0 -0 -0 -0 -0 -0 -1 -1 -1 nan
nan 0 -0 -1 -0 -0 -0 -0 -0 0 -0 1 -0 -1 0 0 1 1 0 1 1 1 1 1 0 0 0 0 0 0 0 0 -0 -0 -0 -0 -0 -0 -0 -0 -0 -1 -1 nan
nan 0 -0 -0 -0 -0 -0 -1 -0 1 0 -0 0 0 -0 0 0 1 1 2 2 2 1 1 0 1 1 0 0 0 0 -0 0 -0 -0 -0 -0 -0 -0 -0 -0 -0 -0 nan
nan 0 -0 -0 -0 0 0 -0 -0 0 1 0 -0 0 0 1 0 1 1 1 2 2 0 1 1 1 0 0 0 0 0 -0 -0 -0 -0 -0 -0 -0 -0 -0 -0 -0 -0 nan
nan 0 0 -0 -0 0 -0 -1 -0 -0 -0 0 0 -0 0 -0 -1 -0 1 0 0 -0 -0 1 1 0 0 0 0 -0 0 -0 -0 -0 -0 -0 -0 -0 -0 -0 -0 -0 -0 nan
nan -0 -0 -1 -0 0 0 -0 -1 -1 -0 0 0 -0 0 0 -1 -1 -1 -1 -1 -0 1 0 0 0 0 0 0 0 0 -0 -0 -0 -0 -0 -0 -0 -0 -0 -0 -0 0 nan
nan 0 0 -0 -0 -0 -1 -1 0 0 0 0 -0 0 -0 -1 0 0 0 -1 -1 0 -0 -0 0 0 0 0 0 -0 0 -0 -0 0 -0 -0 0 -0 -0 -0 -0 -0 -0 nan
nan -0 0 -0 -0 -1 -1 -0 0 0 -0 -0 0 0 0 -0 -1 0 1 -0 0 1 0 0 0 -0 0 0 0 0 0 -0 -0 0 -0 -0 0 -0 -0 -0 -0 -0 -0 nan
nan 0 0 0 -0 -0 -1 -0 -0 -0 0 0 -0 0 0 -0 -0 -0 -0 0 1 1 0 0 0 0 0 0 0 -0 -0 -0 -0 -0 -0 -0 -0 -0 -0 -0 -0 0 0 nan
nan 0 0 0 -0 -1 -1 -0 -1 -0 -0 -0 -0 0 -0 -0 -0 -1 0 0 0 0 0 -0 0 0 0 -0 -0 -0 -0 -0 -0 -1 -0 -0 -1 -0 -0 -0 -0 -0 0 nan
nan 0 0 -0 -0 -1 -0 0 -0 -0 0 -1 -0 0 -0 -0 -0 0 0 0 0 -0 0 0 0 0 -0 -0 -0 -0 -0 -0 -0 -0 -0 -0 -0 -0 -0 -0 -0 -0 0 nan
nan -0 -0 -0 -0 -0 -0 0 -0 -0 -0 0 0 0 0 -0 0 0 0 0 0 0 0 0 0 0 -0 -0 -0 -0 -0 -0 -0 -0 -0 -0 0 0 -0 -0 -0 -0 0 nan
nan 0 0 -0 0 0 -0 -1 -0 -0 0 0 0 0 0 -0 0 -0 0 0 0 0 1 1 0 0 -0 -0 0 0 -0 0 0 0 0 0 0 0 0 0 0 0 0 nan
nan -0 0 0 -1 -2 -0 -0 -0 -0 0 0 0 1 1 0 0 0 0 1 1 1 1 1 0 0 0 0 0 0 0 0 0 0 0 -0 -0 -0 -0 -0 0 0 0 nan
nan nan nan nan nan nan nan nan nan nan nan nan nan nan nan nan nan nan nan nan nan nan nan nan nan nan nan nan nan nan nan nan nan nan nan nan nan nan nan nan nan nan nan nan
Wind_Speed
15 3 7 11 10 9 9 3 4 7 5 3 6 7 15 25 23 24 33 36 32 28 24 22 16 11 8 4 3 4 5 2 2 3 3 3 4 4 7 11 13 14 15 15
6 11 11 10 11 6 5 5 6 7 10 8 5 9 10 16 23 35 31 33 34 29 28 19 11 8 5 3 2 3 7 6 4 2 3 3 6 1 6 10 10 12 15 16
9 9 10 12 5 6 6 4 4 6 9 8 9 10 5 9 22 27 26 36 33 35 28 19 14 8 5 3 2 1 5 7 4 4 3 1 3 5 7 7 8 11 12 16
9 11 12 7 3 4 4 7 7 7 7 4 7 8 7 7 9 16 25 30 33 33 24 20 14 10 8 3 4 3 5 6 7 5 4 4 4 5 6 9 9 9 10 14
7 7 8 4 2 4 3 5 5 4 7 7 4 3 2 11 15 7 14 28 32 33 30 23 18 16 9 5 4 1 5 5 6 6 5 6 6 7 6 8 8 8 10 13
7 13 4 3 5 1 5 4 6 5 2 6 5 7 9 7 6 4 18 24 35 34 29 25 20 13 8 5 5 1 4 5 4 6 7 7 6 7 8 9 9 10 12 14
5 12 15 11 6 2 2 1 3 3 1 6 4 6 8 4 11 4 7 28 34 31 29 23 14 9 5 4 0 3 2 5 2 4 4 6 5 6 9 11 11 12 14 15
3 6 7 10 13 8 6 6 4 5 3 7 7 4 4 11 24 32 34 33 33 28 20 15 12 8 6 5 7 7 6 7 0 3 1 5 5 6 8 11 12 13 14 15
1 3 6 7 4 7 3 4 5 4 4 2 4 7 7 12 11 21 24 31 27 23 20 18 16 14 11 9 10 8 10 7 2 5 2 3 3 5 7 11 13 13 14 16
3 2 4 4 4 4 6 4 2 2 3 4 6 6 4 5 8 8 9 20 24 23 24 22 18 15 14 12 11 10 10 6 4 6 5 1 3 4 7 11 13 12 13 15
4 2 5 6 2 4 3 3 5 4 5 4 7 6 7 10 11 12 17 24 24 24 24 21 18 18 15 15 13 9 8 5 4 5 5 3 3 3 6 11 14 11 14 15
3 1 3 7 8 9 6 7 2 4 6 4 4 9 7 7 9 20 22 28 26 28 27 22 19 17 13 13 11 9 7 4 2 2 1 1 5 5 6 10 15 14 16 18
3 3 3 7 5 7 4 5 7 6 2 9 2 7 3 6 10 20 28 33 28 29 25 20 17 16 13 11 10 8 4 2 2 4 4 8 10 8 8 11 16 17 16 17
5 1 5 6 4 7 9 16 13 5 3 2 11 6 8 9 10 10 23 37 35 31 27 22 18 16 12 10 9 6 6 5 7 7 8 9 11 12 12 13 15 16 17 17
6 6 5 14 11 11 17 19 19 16 16 10 18 17 7 10 8 16 25 31 32 31 27 23 20 16 13 12 10 7 7 6 6 9 10 9 10 13 14 13 13 14 15 16
5 4 6 16 12 15 21 19 16 17 19 19 18 20 6 4 8 13 28 31 27 27 26 25 21 17 13 12 12 10 8 8 7 9 6 9 8 10 9 8 8 8 11 14
2 2 1 15 5 10 13 6 10 16 14 11 13 9 4 7 9 19 25 30 32 27 24 24 22 18 13 13 13 11 9 11 8 7 6 8 8 8 6 6 5 7 8 9
4 0 2 8 4 11 7 8 10 13 13 5 4 6 8 18 17 21 25 31 28 24 24 22 20 18 15 14 14 13 11 12 11 8 9 8 9 8 6 7 6 6 6 9
13 5 2 3 5 15 15 18 8 3 5 10 5 4 4 13 19 12 20 23 22 23 21 20 20 22 19 19 17 15 13 13 12 9 9 11 9 8 9 8 6 4 4 4
14 11 7 3 4 4 4 1 9 2 5 4 4 3 9 10 3 3 19 15 14 19 21 24 25 21 19 18 18 19 18 18 17 15 12 13 12 10 10 9 6 2 3 4
7 9 12 7 5 7 5 3 7 3 4 7 7 5 14 5 6 23 22 16 23 28 28 27 23 22 23 21 20 19 17 15 16 15 13 13 12 10 8 7 6 3 1 3
6 5 4 3 5 8 3 5 2 3 10 14 4 7 11 11 21 30 24 31 33 31 28 25 23 23 22 19 18 18 17 16 14 13 13 11 8 7 6 4 3 1 1 3
3 6 4 8 6 5 5 4 6 8 11 6 7 11 14 25 30 32 34 33 32 29 25 23 21 21 21 18 17 18 18 17 16 15 13 11 8 6 4 2 1 2 4 6
4 5 3 5 5 4 20 22 7 6 10 7 9 13 18 28 31 32 32 30 28 25 23 23 20 19 20 20 19 19 19 18 17 15 13 11 8 6 4 3 1 2 4 6
3 2 3 2 13 21 6 14 12 16 15 10 13 15 19 24 28 29 28 27 25 23 24 23 19 18 20 20 21 21 20 19 18 15 13 10 9 8 6 6 5 6 7 9
5 5 3 5 11 13 11 6 5 15 13 13 18 19 19 20 25 25 25 25 25 27 27 24 20 19 20 21 22 20 21 20 18 16 14 13 11 9 8 7 8 9 10 11
Wind_Direction
256 176 221 237 235 248 258 297 319 296 329 286 234 214 192 191 189 197 192 186 189 184 185 183 192 209 231 274 314 346 319 329 318 296 318 359 39 24 316 321 329 335 338 338
269 253 244 254 283 317 338 327 307 298 323 319 278 260 254 182 200 203 198 185 185 171 169 172 185 192 219 269 88 334 319 329 8 286 10 70 88 276 297 313 335 337 345 343
234 256 268 244 259 295 307 280 295 294 325 330 340 301 279 224 208 206 201 198 184 174 161 161 171 183 209 224 165 324 317 320 354 333 6 169 206 252 285 335 342 356 345 338
264 248 271 299 292 358 320 328 360 15 8 284 47 297 281 293 293 192 194 190 179 172 165 161 160 156 163 230 221 235 288 317 345 6 1 11 359 1 347 352 341 351 342 336
250 323 323 301 265 330 279 13 15 1 321 318 125 277 276 322 293 212 188 183 177 168 164 155 158 156 164 198 247 226 298 330 358 8 10 16 12 17 344 346 351 349 347 345
254 265 267 235 306 134 10 16 351 305 247 273 233 209 278 274 309 311 186 155 147 150 145 144 147 153 167 230 268 200 283 317 18 49 8 8 9 5 343 354 357 354 348 350
263 251 254 234 258 240 89 9 326 322 188 240 221 257 252 15 2 292 149 122 130 136 137 136 138 155 184 239 328 76 243 291 21 88 1 351 359 353 350 350 350 346 347 350
238 319 223 219 205 187 201 181 180 239 225 289 336 280 308 88 59 70 94 102 114 114 119 127 146 167 201 212 204 200 228 259 183 136 357 325 343 1 352 341 343 343 344 344
208 264 13 82 97 122 191 245 215 269 283 320 236 273 67 82 71 81 98 111 121 132 144 161 179 189 198 213 226 221 235 258 214 174 179 313 329 348 338 329 335 345 343 344
1 346 334 319 156 225 180 218 342 339 295 267 275 307 228 120 123 112 116 134 150 162 167 173 182 199 201 211 229 220 237 251 216 192 208 292 315 336 321 326 345 353 351 357
48 93 304 2 262 208 274 238 235 216 164 228 276 268 186 162 170 169 178 167 164 176 186 189 202 211 206 209 225 236 244 242 208 200 218 275 334 346 327 346 360 3 8 10
25 304 255 258 293 307 295 278 279 131 289 232 172 260 235 144 156 183 185 182 184 200 197 199 207 211 208 217 224 232 225 217 207 173 194 9 26 10 4 10 21 22 32 25
15 333 359 318 296 279 287 320 347 339 327 274 169 274 126 162 205 192 177 179 183 187 187 194 208 207 203 206 208 216 189 179 102 67 71 60 36 38 41 37 32 32 34 26
80 194 187 210 251 324 297 294 301 283 245 261 268 276 301 284 243 177 178 178 183 186 191 199 201 196 191 191 194 180 158 97 85 81 73 64 47 55 55 48 34 33 32 25
147 211 255 265 281 286 278 279 291 289 278 266 279 268 256 247 242 198 181 173 178 185 191 199 201 203 198 195 181 164 150 114 95 81 69 68 58 56 57 51 34 29 26 26
184 210 235 263 270 269 270 267 273 265 270 271 259 271 245 189 137 163 173 173 176 187 203 209 202 199 203 191 176 150 146 123 98 103 86 87 78 75 66 67 39 30 28 25
294 127 300 270 278 308 278 225 247 266 263 267 271 267 241 191 184 176 173 178 180 196 204 196 198 202 190 180 162 163 148 137 135 124 125 108 103 99 87 96 76 49 36 26
237 300 211 282 360 271 257 209 257 257 257 234 257 289 280 306 264 194 196 187 190 196 197 198 199 183 182 170 171 166 159 154 149 149 129 121 121 113 110 98 83 59 38 28
208 185 237 245 222 275 303 285 281 281 281 289 242 279 283 97 103 128 189 196 203 204 199 190 185 182 183 179 181 169 164 158 149 156 145 140 136 141 127 101 78 55 49 36
203 203 198 187 248 269 244 307 217 133 306 62 59 290 173 131 114 193 181 189 193 184 173 179 182 184 183 179 174 176 177 177 171 163 157 158 159 152 148 143 131 77 8 14
183 197 215 211 249 267 258 300 100 103 257 350 2 337 165 170 194 171 176 170 161 171 177 180 187 186 189 187 188 190 189 187 186 180 170 164 164 162 152 155 170 187 4 5
174 191 179 187 222 266 308 147 158 193 2 274 323 162 133 145 151 158 164 165 168 172 175 188 190 191 194 195 195 194 191 189 180 176 170 164 160 150 154 166 170 171 26 25
138 185 193 179 212 239 258 246 180 219 235 223 202 164 157 146 150 158 160 166 171 178 184 192 195 195 197 193 189 186 186 182 175 170 166 163 166 169 173 193 160 63 17 9
280 185 224 349 326 356 302 268 244 233 248 228 214 185 170 160 162 163 167 172 178 183 187 196 194 198 192 189 183 185 185 179 179 176 173 175 185 197 204 219 230 313 331 338
232 8 151 227 277 271 245 214 225 216 218 201 207 193 180 175 174 176 178 181 185 184 187 199 204 204 190 183 186 187 185 186 184 183 185 190 200 214 236 262 274 284 299 318
208 227 189 237 285 267 249 315 275 198 212 188 194 175 189 193 185 185 184 192 187 185 192 204 210 207 193 189 189 187 189 191 192 194 201 209 216 229 244 261 281 296 308 319
Height
1507 1512 1515 1507 1502 1499 1496 1495 1498 1493 1490 1489 1493 1494 1497 1494 1498 1499 1498 1500 1504 1509 1513 1515 1518 1520 1522 1525 1525 1525 1522 1520 1519 1519 1520 1521 1522 1522 1519 1517 1515 1513 1511 1508
1508 1508 1498 1494 1493 1493 1494 1497 1500 1491 1484 1488 1494 1497 1488 1489 1489 1487 1491 1497 1501 1504 1509 1514 1517 1520 1520 1522 1524 1524 1522 1520 1518 1516 1519 1519 1520 1521 1519 1517 1515 1512 1509 1507
1505 1498 1492 1491 1493 1495 1496 1497 1497 1499 1490 1487 1490 1488 1488 1482 1478 1484 1490 1490 1495 1496 1502 1508 1511 1514 1517 1520 1522 1522 1520 1519 1519 1519 1518 1519 1519 1520 1519 1518 1514 1512 1508 1505
1499 1491 1490 1492 1492 1493 1503 1493 1494 1497 1503 1513 1499 1511 1491 1484 1479 1478 1482 1487 1493 1497 1504 1510 1513 1516 1517 1518 1519 1520 1519 1520 1520 1519 1517 1517 1517 1517 1516 1516 1514 1512 1509 1505
1500 1493 1495 1493 1492 1490 1498 1494 1497 1499 1507 1505 1502 1512 1481 1483 1482 1480 1479 1483 1491 1496 1500 1506 1510 1512 1514 1516 1518 1521 1518 1517 1518 1520 1518 1516 1517 1518 1516 1514 1513 1511 1508 1506
1493 1491 1490 1489 1489 1489 1492 1496 1499 1500 1506 1521 1501 1508 1494 1488 1481 1472 1472 1480 1488 1496 1503 1508 1512 1514 1515 1518 1518 1519 1518 1517 1517 1517 1519 1517 1516 1516 1514 1512 1510 1509 1507 1504
1491 1489 1484 1485 1491 1489 1492 1504 1525 1525 1523 1517 1489 1496 1492 1487 1482 1476 1478 1486 1491 1498 1505 1510 1512 1514 1516 1517 1521 1521 1518 1517 1517 1515 1518 1517 1516 1514 1513 1510 1508 1507 1505 1502
1497 1504 1480 1477 1484 1492 1495 1503 1522 1519 1520 1513 1491 1498 1494 1488 1486 1481 1483 1489 1496 1501 1505 1509 1511 1515 1518 1518 1520 1520 1518 1517 1517 1516 1516 1516 1514 1512 1511 1509 1507 1506 1503 1500
1491 1489 1479 1475 1478 1484 1493 1502 1494 1505 1503 1517 1501 1488 1487 1488 1492 1492 1494 1494 1497 1501 1505 1507 1507 1511 1513 1516 1518 1518 1517 1517 1516 1515 1515 1514 1513 1510 1509 1508 1507 1504 1502 1500
1483 1496 1481 1480 1480 1482 1487 1487 1505 1506 1515 1515 1503 1495 1496 1494 1496 1497 1498 1498 1499 1498 1498 1502 1506 1511 1509 1515 1515 1515 1514 1516 1515 1514 1513 1512 1511 1510 1508 1507 1506 1503 1501 1498
1484 1491 1494 1486 1486 1489 1489 1492 1492 1494 1506 1509 1507 1511 1489 1488 1487 1491 1493 1494 1496 1497 1496 1499 1503 1507 1509 1509 1514 1513 1513 1513 1513 1513 1512 1511 1510 1509 1507 1506 1505 1502 1501 1499
1486 1491 1499 1491 1482 1481 1485 1486 1487 1511 1501 1505 1510 1500 1476 1480 1483 1482 1485 1488 1491 1491 1493 1496 1501 1505 1506 1509 1511 1511 1512 1512 1511 1511 1510 1509 1509 1508 1507 1506 1504 1502 1501 1499
1490 1497 1515 1497 1487 1481 1485 1480 1484 1487 1489 1492 1518 1496 1477 1479 1478 1475 1475 1482 1487 1488 1492 1496 1501 1503 1504 1507 1509 1510 1510 1510 1509 1508 1508 1508 1507 1507 1507 1506 1505 1504 1502 1501
1490 1496 1502 1516 1499 1494 1494 1485 1483 1489 1507 1502 1487 1493 1478 1478 1474 1472 1473 1475 1479 1483 1487 1493 1497 1500 1503 1505 1506 1507 1508 1508 1508 1508 1508 1508 1508 1508 1507 1506 1507 1505 1504 1502
1491 1500 1496 1490 1492 1493 1489 1485 1481 1483 1481 1490 1479 1474 1472 1468 1466 1465 1468 1473 1475 1480 1487 1490 1495 1498 1500 1501 1503 1506 1506 1507 1508 1508 1508 1508 1509 1508 1508 1508 1508 1507 1505 1503
1488 1496 1493 1488 1490 1488 1482 1478 1477 1472 1470 1470 1467 1462 1459 1460 1459 1462 1463 1468 1474 1481 1481 1488 1492 1496 1497 1499 1501 1503 1504 1506 1507 1508 1509 1509 1509 1510 1510 1510 1509 1508 1507 1505
1490 1492 1496 1483 1487 1487 1482 1477 1472 1465 1462 1465 1465 1459 1456 1456 1455 1455 1460 1463 1466 1471 1478 1483 1488 1492 1494 1497 1499 1502 1504 1505 1507 1508 1508 1509 1510 1510 1511 1511 1511 1510 1509 1507
1489 1493 1498 1491 1495 1499 1472 1461 1461 1460 1456 1456 1455 1452 1453 1449 1446 1448 1454 1458 1465 1468 1474 1481 1485 1489 1492 1495 1499 1502 1503 1504 1506 1507 1508 1509 1510 1511 1512 1511 1511 1511 1510 1508
1480 1490 1500 1495 1496 1473 1470 1458 1458 1458 1458 1450 1449 1449 1450 1449 1449 1456 1457 1460 1463 1467 1473 1478 1483 1487 1490 1494 1497 1500 1502 1503 1505 1506 1507 1509 1510 1511 1511 1511 1511 1511 1510 1508
1473 1479 1490 1493 1486 1479 1457 1449 1449 1451 1464 1448 1449 1449 1450 1448 1459 1458 1458 1461 1464 1469 1473 1476 1482 1486 1489 1492 1495 1497 1499 1501 1503 1504 1506 1507 1509 1509 1509 1510 1511 1510 1509 1508
1471 1476 1480 1483 1484 1473 1453 1450 1450 1463 1464 1449 1447 1447 1446 1446 1446 1449 1455 1458 1462 1468 1470 1476 1480 1484 1486 1490 1493 1496 1498 1500 1502 1503 1505 1506 1507 1508 1509 1510 1510 1509 1508 1507
1468 1472 1478 1481 1483 1473 1450 1448 1454 1457 1452 1453 1448 1447 1444 1444 1445 1450 1454 1459 1461 1466 1470 1474 1478 1482 1485 1489 1492 1494 1497 1499 1501 1503 1505 1506 1508 1508 1509 1509 1509 1508 1507 1506
1464 1458 1464 1463 1462 1448 1446 1446 1445 1448 1448 1448 1446 1446 1444 1445 1448 1450 1453 1458 1461 1465 1469 1473 1477 1480 1483 1486 1489 1492 1495 1498 1500 1502 1504 1506 1507 1507 1508 1508 1508 1507 1506 1505
1448 1449 1455 1454 1447 1443 1449 1446 1441 1443 1446 1445 1443 1444 1444 1445 1447 1451 1454 1458 1461 1466 1469 1471 1475 1477 1480 1484 1487 1491 1494 1497 1500 1502 1503 1505 1506 1506 1507 1507 1507 1505 1504 1502
1454 1454 1456 1457 1450 1447 1442 1440 1437 1437 1439 1441 1441 1442 1444 1445 1448 1449 1454 1457 1461 1465 1467 1470 1473 1475 1478 1481 1485 1489 1491 1495 1498 1500 1501 1503 1504 1504 1505 1504 1504 1503 1501 1500
1448 1448 1452 1451 1442 1440 1437 1438 1437 1436 1436 1437 1437 1441 1442 1444 1446 1450 1453 1455 1459 1463 1466 1469 1472 1474 1477 1480 1483 1486 1490 1492 1495 1497 1498 1499 1500 1501 1502 1501 1500 1499 1498 1496